EW9824 Weather Reports


Display with metric or nautical units.
time (UTC)temp
F
wind
direction
speed
MPH
gust
MPH
rain 1hr
in
rain 24hr
in
rain mn
in
humidity
%
barometer
mb
20260507100036 55 292 5.0 15.0 0.00 0.00 0.00 69 1021.1
20260507094526 55 288 4.0 14.0 0.00 0.00 0.00 68 1021.2
20260507093033 55 277 4.0 10.0 0.00 0.00 0.00 67 1021.3
20260507091606 56 251 6.0 16.0 0.00 0.00 0.00 67 1021.3
20260507090033 55 245 6.0 15.0 0.00 0.00 0.00 69 1021.4
20260507084530 55 253 5.0 12.0 0.00 0.00 0.00 70 1021.7
20260507083034 56 269 6.0 15.0 0.00 0.00 0.00 70 1021.8
20260507081531 56 270 7.0 15.0 0.00 0.00 0.00 70 1021.9
20260507080031 56 267 8.0 15.0 0.00 0.00 0.00 70 1021.9
20260507074606 56 271 7.0 16.0 0.00 0.00 0.00 70 1021.9
20260507073106 57 271 6.0 13.0 0.00 0.00 0.00 69 1021.9
20260507071531 57 273 6.0 15.0 0.00 0.00 0.00 69 1021.8
20260507070034 57 284 5.0 15.0 0.00 0.00 0.00 70 1021.8
20260507063031 57 289 5.0 14.0 0.00 0.00 0.00 70 1022.0
20260507060030 57 279 4.0 7.0 0.00 0.00 0.00 70 1022.3
20260507054603 57 309 4.0 8.0 0.00 0.00 0.00 70 1022.3
20260507053032 56 278 3.0 10.0 0.00 0.00 0.00 70 1022.3
20260507051530 58 336 2.0 4.0 0.00 0.00 0.00 68 1022.4
20260507050033 58 326 3.0 7.0 0.00 0.00 0.00 67 1022.4
20260507044529 57 309 4.0 8.0 0.00 0.00 0.00 66 1022.3
20260507043030 57 357 2.0 7.0 0.00 0.00 0.00 65 1022.2
20260507041528 58 185 3.0 7.0 0.00 0.00 0.00 62 1022.1
20260507034646 60 262 4.0 12.0 0.00 0.00 0.00 58 1022.1
20260507033030 60 279 4.0 14.0 0.00 0.00 0.00 59 1022.0
20260507031606 61 257 6.0 12.0 0.00 0.00 0.00 58 1022.0
20260507030029 62 251 4.0 10.0 0.00 0.00 0.00 57 1022.1
20260507024530 63 270 5.0 13.0 0.00 0.00 0.00 55 1022.1
20260507023030 64 253 8.0 14.0 0.00 0.00 0.00 53 1022.0
20260507021533 66 256 7.0 16.0 0.00 0.00 0.00 51 1021.9
20260507020031 66 260 8.0 20.0 0.00 0.00 0.00 50 1021.7
20260507014529 67 268 7.0 15.0 0.00 0.00 0.00 49 1021.6
20260507013031 67 259 9.0 17.0 0.00 0.00 0.00 48 1021.5
20260507011531 68 263 8.0 19.0 0.00 0.00 0.00 46 1021.6
20260507010031 68 274 9.0 18.0 0.00 0.00 0.00 44 1021.5
20260507004530 71 272 9.0 17.0 0.00 0.00 0.00 41 1021.4
20260507003032 72 263 6.0 14.0 0.00 0.00 0.00 42 1021.2
20260507001531 71 277 7.0 15.0 0.00 0.00 0.00 41 1021.2
20260507000108 72 260 7.0 17.0 0.00 0.00 0.00 41 1021.1
20260506234532 72 282 6.0 17.0 0.00 0.00 0.00 42 1021.0
20260506233032 73 287 5.0 13.0 0.00 0.00 0.00 40 1021.0
20260506231604 73 274 7.0 16.0 0.00 0.00 0.00 39 1020.9
20260506230031 74 278 8.0 16.0 0.00 0.00 0.00 38 1020.8
20260506224530 76 263 7.0 17.0 0.00 0.00 0.00 38 1021.0
20260506223029 75 269 5.0 14.0 0.00 0.00 0.00 40 1021.1
20260506221532 73 286 6.0 14.0 0.00 0.00 0.00 41 1021.3
20260506220033 75 288 7.0 18.0 0.00 0.00 0.00 41 1021.2
20260506214533 74 282 6.0 16.0 0.00 0.00 0.00 41 1021.1
20260506211529 73 273 6.0 15.0 0.00 0.00 0.00 43 1021.2
20260506210028 72 302 5.0 13.0 0.00 0.00 0.00 46 1021.2
20260506204530 71 314 7.0 15.0 0.00 0.00 0.00 46 1021.3
20260506203030 71 299 9.0 17.0 0.00 0.00 0.00 45 1021.3
20260506201645 72 302 7.0 17.0 0.00 0.00 0.00 45 1021.2
20260506200028 72 306 7.0 19.0 0.00 0.00 0.00 45 1021.2
20260506194534 72 286 6.0 13.0 0.00 0.00 0.00 46 1021.2
20260506193029 71 294 6.0 15.0 0.00 0.00 0.00 49 1021.3
20260506191531 70 307 6.0 14.0 0.00 0.00 0.00 51 1021.4
20260506190031 69 297 8.0 17.0 0.00 0.00 0.00 52 1021.4
20260506184530 69 327 6.0 15.0 0.00 0.00 0.00 54 1021.2
20260506181530 67 307 6.0 14.0 0.00 0.00 0.00 56 1021.5
20260506174529 68 318 5.0 14.0 0.00 0.00 0.00 57 1021.3
20260506171530 65 30 4.0 8.0 0.00 0.00 0.00 63 1021.1
20260506170031 64 358 6.0 12.0 0.00 0.00 0.00 64 1021.1
20260506164530 63 68 6.0 12.0 0.00 0.00 0.00 66 1021.3
20260506163107 63 358 7.0 14.0 0.00 0.00 0.00 67 1021.7
20260506161530 62 348 5.0 10.0 0.00 0.00 0.00 69 1021.8
20260506160114 61 346 4.0 11.0 0.00 0.00 0.00 72 1021.6
20260506154530 60 352 4.0 9.0 0.00 0.00 0.00 75 1021.7
20260506153034 58 344 5.0 8.0 0.00 0.00 0.00 82 1021.4
20260506151529 55 64 1.0 4.0 0.00 0.00 0.00 92 1021.2
20260506143037 48 172 1.0 3.0 0.00 0.00 0.00 96 1021.3
20260506141531 46 149 2.0 5.0 0.00 0.00 0.00 95 1021.0
20260506140030 45 157 2.0 4.0 0.00 0.00 0.00 94 1020.9
20260506134531 47 199 2.0 4.0 0.00 0.00 0.00 92 1020.8
20260506133033 49 297 4.0 16.0 0.00 0.00 0.00 96 1020.7
20260506131648 45 301 4.0 13.0 0.00 0.00 0.00 97 1020.6
20260506124534 45 173 3.0 6.0 0.00 0.00 0.00 97 1020.4
20260506123030 44 147 2.0 7.0 0.00 0.00 0.00 97 1020.1
20260506120034 44 186 2.0 7.0 0.00 0.00 0.00 96 1019.9
20260506114535 45 175 2.0 4.0 0.00 0.00 0.00 96 1019.8
20260506113108 45 147 2.0 4.0 0.00 0.00 0.00 96 1019.6
20260506111651 45 156 1.0 4.0 0.00 0.00 0.00 96 1019.5
20260506110034 46 177 2.0 6.0 0.00 0.00 0.00 96 1019.4
20260506104531 46 181 2.0 4.0 0.00 0.00 0.00 96 1019.2
20260506103033 46 187 3.0 4.0 0.00 0.00 0.00 96 1019.1